Location: Haliburton Scout Reserve
(45.0900°N, 78.3200°W)
Time: 18:03:48
(UTC-04:00)

JY1SAT - Pass Details

Date: 29 June 2024
Orbit: 536 x 549 km, 97.5° (Epoch: 11 July)

Event Time Altitude Azimuth Distance (km) Brightness Sun altitude
Exits shadow 22:46:18 - 198° (SSW) 1,948 ? -13.6°
Reaches altitude 10° 22:46:39 10° 200° (SSW) 1,818 ? -13.7°
Maximum altitude 22:50:10 31° 264° (W) 983 ? -14.0°
Drops below altitude 10° 22:53:44 10° 327° (NNW) 1,835 ? -14.4°
Sets 22:56:03 0° 338° (NNW) 2,735 ? -14.6°
